Regional Weather Roundup
Issued by NWS

Home | Current Version | Previous Version | Text Only | Print | Product List | Glossary Off
Versions: 1 2 3 4 5 6 7 8 9 10 11 12 13 14 15 16 17 18 19 20 21 22 23 24 25 26 27 28 29 30 31 32 33 34 35 36 37 38 39 40 41 42 43 44 45 46 47 48 49 50

272
ASUS44 KMEG 010010
RWRTN
TENNESSEE HOURLY STATE WEATHER ROUNDUP
NATIONAL WEATHER SERVICE MEMPHIS TN
700 PM CDT FRI SEP 30 2016

TNZ002-004-019-021-049-052-054-088>092-010100-
WEST TENNESSEE

CITY           SKY/WX    TMP DP  RH WIND       PRES   REMARKS
MEMPHIS INTL   PTCLDY    69  53  56 NW6       30.04S
NWS MEMPHIS      N/A     68 N/A N/A MISG        N/A
JACKSON          N/A    N/A N/A N/A MISG      30.04S
DYERSBURG      CLOUDY   N/A N/A N/A MISG        N/A
UNION CITY     PTCLDY    61  57  88 CALM      30.03S
PARIS          MOCLDY    57  55  94 CALM      30.04S
HUNTINGDON     CLOUDY    64  57  77 CALM      30.02F
LEXINGTON      CLOUDY    64  55  72 NW5       30.04R
$$

TNZ008-025-027-028-033-062-065-066-010100-
NORTH MIDDLE TENNESSEE

CITY           SKY/WX    TMP DP  RH WIND       PRES   REMARKS
NASHVILLE      MOCLDY    60  58  92 S3        30.04F
PORTLAND       CLEAR     59  57  94 SW5       30.02F
CLARKSVILLE    CLOUDY    63  59  87 S3        30.01F
SMYRNA         CLOUDY    62  58  86 CALM      30.05S
COOKEVILLE     MOCLDY    57  55  94 CALM      30.04S
GALLATIN       CLOUDY    61  59  94 S5        30.05F
CROSSVILLE     MOCLDY    58  50  75 CALM      30.07S
$$

TNZ061-075-076-078-094-096-097-010100-
SOUTH MIDDLE TENNESSEE

CITY           SKY/WX    TMP DP  RH WIND       PRES   REMARKS
FAYETTEVILLE   CLOUDY    57  54  88 CALM      30.06F
TULLAHOMA      CLEAR     57  52  82 S3        30.07S
WINCHESTER     CLEAR     59  52  77 S3        30.07S
MCMINNVILLE    MOCLDY    61  54  77 CALM      30.06S
COLUMBIA       CLOUDY    63  63 100 CALM      30.03F
SHELBYVILLE    CLOUDY    64  54  68 CALM      30.07R
$$

TNZ017-018-042-046-047-010100-
NORTHEAST TENNESSEE

CITY           SKY/WX    TMP DP  RH WIND       PRES   REMARKS
TRI CITIES     MOCLDY    65  50  58 W3        30.05R
ELIZABETHTON     N/A     59  57  94 CALM      30.05R
$$

TNZ012-013-036-069-073-074-010100-
CENTRAL EAST TENNESSEE

CITY           SKY/WX    TMP DP  RH WIND       PRES   REMARKS
KNOXVILLE      PTCLDY    63  45  51 SW6       30.03S
OAK RIDGE      PTCLDY    64  47  53 CALM      30.05S
DOWNTOWN KNOXV CLEAR     63  52  67 CALM      30.04R
GATLINBURG     CLEAR     63  45  51 CALM      30.04R
MORRISTOWN     CLEAR     66  45  45 W3        30.03S
JACKSBORO      MOCLDY    61  48  63 SW3       30.07S
$$

TNZ083-085-099-010100-
SOUTHEAST TENNESSEE

CITY           SKY/WX    TMP DP  RH WIND       PRES   REMARKS
CHATTANOOGA    PTCLDY    66  47  50 W5        30.04S
$$

SKY/WX REPORTED AS FAIR MEANS FEW OR NO CLOUDS BELOW
12 THOUSAND FEET.





USA.gov is the U.S. government's official web portal to all federal, state and local government web resources and services.